Location: Mount Cross
(36.6390°N, 79.4878°W)
Time: 01:12:30
(UTC+00:00)

Vanguard 2 Rocket - Pass Details

Date: 24 March 2023
Orbit: 554 x 3314 km, 32.9° (Epoch: 08 June)

Event Time Altitude Azimuth Distance (km) Brightness Sun altitude
Exits shadow 07:21:07 23° 158° (SSE) 5,226 10.4 -43.3°
Drops below altitude 10° 07:27:06 10° 147° (SSE) 6,227 11.0 -42.5°
Sets 07:32:12 0° 141° (SE) 7,130 11.4 -41.8°
